STARLINK-35922 (66502 NORAD) Tracking and Keplerian Element Data

This shows tracking and keplerian element data for the satellite.

Feedback or suggestion? Click here.




ElementValue
Catalog66502
NameSTARLINK-35922
Epoch Orbit609
Epoch Day354.25003472
Epoch Year2025
RAAN81.3832
Inclination43.0013
Eccentricity0.0001358
Argument of Perigee263.6678
Mean Anonmoly176.4029
Mean Motion15.40681185
Decay Rate0.00042427
L11 66502U 25263T 25354.25003472 .00042427 00000+0 10179-2 0 9997
L22 66502 43.0013 81.3832 0001358 263.6678 176.4029 15.40681185 6095



Live tracking and technical data element details for STARLINK-35922 (NORAD 66502). STARLINK-35922 can be tracked NOW for your location showing map with azimuth and elevation plus other details from your city location.







IsCatalogInMostPopularTable: catalog: 66502, numindb: 12
Update: records affected: 1



GetName: 66502 STARLINK-35922

Hit Count: updated at: Mon, 20 Apr 2026 10:17:03 GMT